TimePDT,TemperatureF,Dew PointF,Humidity,Sea Level PressureIn,VisibilityMPH,Wind Direction,Wind SpeedMPH,Gust SpeedMPH,PrecipitationIn,Events,Conditions,WindDirDegrees,DateUTC
12:15 AM,53.6,32.0,44,30.11,10.0,NW,4.6,-,N/A,,Clear,320,2013-06-23 07:15:00
12:35 AM,53.6,32.0,44,30.11,10.0,West,8.1,-,N/A,,Clear,280,2013-06-23 07:35:00
12:55 AM,53.6,32.0,44,30.10,10.0,West,10.4,-,N/A,,Clear,270,2013-06-23 07:55:00
1:15 AM,53.6,32.0,44,30.10,10.0,West,10.4,-,N/A,,Clear,270,2013-06-23 08:15:00
1:35 AM,51.8,32.0,47,30.09,10.0,WNW,6.9,16.1,N/A,,Clear,290,2013-06-23 08:35:00
1:55 AM,51.8,32.0,47,30.09,10.0,WNW,6.9,-,N/A,,Clear,290,2013-06-23 08:55:00
2:15 AM,51.8,32.0,47,30.09,10.0,West,6.9,-,N/A,,Clear,270,2013-06-23 09:15:00
2:35 AM,50.0,32.0,50,30.08,10.0,West,8.1,-,N/A,,Clear,280,2013-06-23 09:35:00
2:55 AM,50.0,32.0,50,30.08,10.0,Calm,Calm,-,N/A,,Clear,0,2013-06-23 09:55:00
3:15 AM,48.2,30.2,50,30.07,10.0,SSE,3.5,-,N/A,,Clear,160,2013-06-23 10:15:00
3:35 AM,46.4,32.0,57,30.07,10.0,South,4.6,-,N/A,,Clear,180,2013-06-23 10:35:00
3:55 AM,46.4,32.0,57,30.07,10.0,South,5.8,-,N/A,,Clear,190,2013-06-23 10:55:00
4:15 AM,46.4,32.0,57,30.06,10.0,Calm,Calm,-,N/A,,Clear,0,2013-06-23 11:15:00
4:35 AM,46.4,32.0,57,30.06,10.0,South,4.6,-,N/A,,Clear,170,2013-06-23 11:35:00
4:55 AM,44.6,32.0,61,30.06,10.0,South,4.6,-,N/A,,Clear,170,2013-06-23 11:55:00
5:15 AM,46.4,32.0,57,30.05,10.0,SSE,3.5,-,N/A,,Clear,150,2013-06-23 12:15:00
5:35 AM,42.8,30.2,61,30.05,10.0,Calm,Calm,-,N/A,,Clear,0,2013-06-23 12:35:00
5:55 AM,42.8,32.0,66,30.05,10.0,Calm,Calm,-,N/A,,Clear,0,2013-06-23 12:55:00
6:15 AM,37.4,28.4,70,30.05,10.0,North,6.9,-,N/A,,Clear,350,2013-06-23 13:15:00
6:35 AM,42.8,32.0,66,30.05,10.0,Calm,Calm,-,N/A,,Clear,0,2013-06-23 13:35:00
6:55 AM,50.0,33.8,54,30.05,10.0,Calm,Calm,-,N/A,,Clear,0,2013-06-23 13:55:00
7:15 AM,53.6,33.8,47,30.05,10.0,SSE,4.6,-,N/A,,Clear,150,2013-06-23 14:15:00
7:35 AM,55.4,33.8,44,30.05,10.0,SE,6.9,-,N/A,,Clear,140,2013-06-23 14:35:00
7:55 AM,59.0,33.8,39,30.04,10.0,ESE,3.5,-,N/A,,Clear,120,2013-06-23 14:55:00
8:15 AM,60.8,33.8,36,30.04,10.0,Calm,Calm,-,N/A,,Clear,0,2013-06-23 15:15:00
8:35 AM,62.6,33.8,34,30.04,10.0,Calm,Calm,-,N/A,,Clear,0,2013-06-23 15:35:00
8:55 AM,64.4,33.8,32,30.03,10.0,SSE,4.6,-,N/A,,Clear,150,2013-06-23 15:55:00
9:15 AM,66.2,33.8,30,30.02,10.0,ESE,5.8,-,N/A,,Clear,110,2013-06-23 16:15:00
9:35 AM,68.0,33.8,28,30.02,10.0,ENE,4.6,-,N/A,,Clear,70,2013-06-23 16:35:00
9:55 AM,71.6,30.2,22,30.01,10.0,NW,13.8,20.7,N/A,,Clear,310,2013-06-23 16:55:00
10:15 AM,71.6,24.8,17,30.00,10.0,SSW,8.1,19.6,N/A,,Clear,200,2013-06-23 17:15:00
10:35 AM,71.6,23.0,16,30.00,10.0,West,16.1,-,N/A,,Clear,260,2013-06-23 17:35:00
10:55 AM,69.8,24.8,18,30.00,10.0,WSW,9.2,19.6,N/A,,Scattered Clouds,250,2013-06-23 17:55:00
11:15 AM,69.8,24.8,18,30.00,10.0,WSW,12.7,23.0,N/A,,Clear,240,2013-06-23 18:15:00
11:35 AM,69.8,26.6,20,30.01,10.0,WSW,13.8,25.3,N/A,,Clear,250,2013-06-23 18:35:00
11:55 AM,68.0,30.2,24,30.01,10.0,West,17.3,24.2,N/A,,Clear,270,2013-06-23 18:55:00
12:15 PM,66.2,32.0,28,30.00,10.0,WNW,21.9,27.6,N/A,,Clear,290,2013-06-23 19:15:00
12:35 PM,68.0,30.2,24,29.99,10.0,West,13.8,29.9,N/A,,Clear,270,2013-06-23 19:35:00
12:55 PM,68.0,32.0,26,29.99,10.0,WNW,28.8,39.1,N/A,,Clear,290,2013-06-23 19:55:00
1:15 PM,68.0,32.0,26,29.99,10.0,WNW,25.3,35.7,N/A,,Clear,290,2013-06-23 20:15:00
1:35 PM,68.0,32.0,26,29.98,10.0,West,18.4,35.7,N/A,,Clear,280,2013-06-23 20:35:00
1:55 PM,68.0,32.0,26,29.98,10.0,WSW,23.0,31.1,N/A,,Clear,250,2013-06-23 20:55:00
2:15 PM,68.0,32.0,26,29.98,10.0,West,24.2,35.7,N/A,,Clear,270,2013-06-23 21:15:00
2:35 PM,66.2,32.0,28,29.98,10.0,West,23.0,34.5,N/A,,Clear,270,2013-06-23 21:35:00
2:55 PM,66.2,32.0,28,29.98,10.0,WSW,19.6,32.2,N/A,,Clear,240,2013-06-23 21:55:00
3:15 PM,66.2,32.0,28,29.98,10.0,WSW,23.0,33.4,N/A,,Clear,240,2013-06-23 22:15:00
3:35 PM,66.2,30.2,26,29.97,10.0,WSW,16.1,31.1,N/A,,Clear,240,2013-06-23 22:35:00
3:55 PM,66.2,28.4,24,29.96,10.0,WSW,11.5,17.3,N/A,,Scattered Clouds,240,2013-06-23 22:55:00
4:15 PM,66.2,28.4,24,29.96,10.0,WNW,13.8,26.5,N/A,,Scattered Clouds,290,2013-06-23 23:15:00
4:35 PM,64.4,30.2,28,29.96,10.0,WNW,25.3,35.7,N/A,,Clear,300,2013-06-23 23:35:00
4:55 PM,62.6,32.0,32,29.96,10.0,WNW,24.2,36.8,N/A,,Scattered Clouds,290,2013-06-23 23:55:00
5:15 PM,62.6,32.0,32,29.95,10.0,WNW,21.9,32.2,N/A,,Clear,290,2013-06-24 00:15:00
5:35 PM,62.6,32.0,32,29.96,10.0,West,19.6,28.8,N/A,,Clear,280,2013-06-24 00:35:00
5:55 PM,62.6,32.0,32,29.96,10.0,WNW,19.6,26.5,N/A,,Scattered Clouds,300,2013-06-24 00:55:00
6:15 PM,62.6,30.2,30,29.97,10.0,WNW,21.9,28.8,N/A,,Scattered Clouds,290,2013-06-24 01:15:00
6:35 PM,60.8,28.4,29,29.96,10.0,NW,5.8,24.2,N/A,,Scattered Clouds,320,2013-06-24 01:35:00
6:55 PM,60.8,28.4,29,29.97,10.0,WNW,16.1,23.0,N/A,,Clear,290,2013-06-24 01:55:00
7:15 PM,60.8,28.4,29,29.98,10.0,WNW,11.5,23.0,N/A,,Clear,290,2013-06-24 02:15:00
7:35 PM,59.0,30.2,34,29.99,10.0,WNW,21.9,28.8,N/A,,Clear,290,2013-06-24 02:35:00
7:55 PM,57.2,30.2,36,29.99,10.0,WNW,17.3,28.8,N/A,,Clear,290,2013-06-24 02:55:00
8:15 PM,55.4,32.0,41,29.99,10.0,West,18.4,25.3,N/A,,Clear,280,2013-06-24 03:15:00
8:35 PM,55.4,32.0,41,29.99,10.0,West,16.1,-,N/A,,Mostly Cloudy,270,2013-06-24 03:35:00
8:55 PM,53.6,32.0,44,29.99,10.0,West,16.1,20.7,N/A,,Scattered Clouds,260,2013-06-24 03:55:00
9:15 PM,51.8,32.0,47,29.99,10.0,West,17.3,21.9,N/A,,Clear,270,2013-06-24 04:15:00
9:35 PM,51.8,30.2,44,29.99,10.0,West,12.7,-,N/A,,Clear,260,2013-06-24 04:35:00
9:55 PM,51.8,30.2,44,30.00,10.0,West,19.6,24.2,N/A,,Clear,270,2013-06-24 04:55:00
10:15 PM,51.8,30.2,44,29.99,10.0,WNW,16.1,-,N/A,,Clear,290,2013-06-24 05:15:00
10:35 PM,51.8,30.2,44,29.99,10.0,West,9.2,-,N/A,,Clear,270,2013-06-24 05:35:00
10:55 PM,51.8,30.2,44,29.99,10.0,West,13.8,18.4,N/A,,Clear,270,2013-06-24 05:55:00
11:15 PM,50.0,32.0,50,29.99,10.0,West,11.5,21.9,N/A,,Clear,270,2013-06-24 06:15:00
11:35 PM,50.0,32.0,50,29.98,10.0,WNW,15.0,20.7,N/A,,Clear,300,2013-06-24 06:35:00
11:55 PM,50.0,32.0,50,29.98,10.0,West,9.2,16.1,N/A,,Clear,270,2013-06-24 06:55:00